Wind_Speed
19 21 23 24 26 25 28 29 33 38 36 37 38 38 36 34 31 28 26 25 21 22 18 20 22 23 20 20 20 17 10 13 12 9 13 21 28 30 32 34 41 37 30 44 43 37 35
22 20 21 23 24 24 26 29 29 35 38 38 43 38 38 36 32 28 26 23 21 20 17 20 22 23 18 18 17 16 12 13 11 9 6 17 14 32 31 28 32 38 24 28 47 26 33
26 24 23 22 23 23 25 27 24 32 34 39 40 42 40 36 30 27 25 22 22 18 16 19 21 20 18 16 13 15 9 9 8 3 2 15 22 24 20 27 30 36 23 30 29 35 22
34 31 26 26 25 23 23 26 23 29 34 34 37 41 42 36 30 27 24 21 21 15 14 18 21 19 13 8 12 15 12 6 7 4 6 25 25 22 22 18 24 40 29 23 23 41 15
36 36 36 30 28 28 24 24 25 25 33 33 39 37 45 38 30 26 22 20 17 13 11 18 14 20 12 22 19 18 16 4 3 4 12 25 29 18 26 20 21 25 12 22 24 30 15
38 38 38 37 34 30 30 20 31 23 27 30 33 34 43 43 31 26 20 18 14 11 9 14 14 15 19 18 21 12 8 5 2 3 11 16 26 18 24 15 25 22 22 25 11 14 27
39 38 40 41 39 35 31 33 23 27 25 35 29 39 35 44 32 25 19 16 13 8 7 12 15 15 16 12 13 12 10 7 3 8 16 13 25 23 31 8 10 22 28 20 21 9 8
38 39 41 45 47 42 39 36 24 29 26 30 31 34 29 41 31 23 17 14 12 7 4 11 13 14 12 10 9 8 10 4 3 11 14 15 16 25 22 16 10 20 23 16 18 12 4
37 37 39 41 44 48 46 36 34 21 24 29 33 31 31 40 30 22 16 12 10 4 1 9 9 10 10 9 8 5 8 12 6 12 14 18 12 14 15 14 22 15 22 21 14 11 13
37 38 40 42 43 45 46 45 32 26 31 27 28 32 28 39 29 21 14 12 8 2 1 7 5 4 3 6 10 20 24 15 17 12 12 18 19 21 11 22 21 21 25 17 15 22 9
36 37 38 42 44 45 44 42 39 34 30 22 31 29 28 29 29 18 13 10 5 3 2 2 6 5 4 8 7 14 17 24 17 11 9 11 8 15 18 16 14 16 19 13 10 10 10
40 39 38 38 37 44 46 45 41 35 31 24 34 24 27 28 26 17 10 8 4 2 3 5 3 5 6 8 9 13 17 19 16 13 18 18 21 15 14 15 11 23 22 21 16 13 4
34 32 33 35 36 35 44 42 38 41 29 30 30 26 26 28 23 15 9 7 4 4 9 8 7 5 5 6 8 11 13 11 8 13 21 20 20 19 19 23 23 24 28 4 4 2 4
32 34 39 39 41 36 24 25 31 43 34 29 29 24 24 29 22 14 10 8 7 7 9 11 11 9 6 6 6 9 8 9 10 17 17 6 9 12 17 18 18 19 5 4 4 3 3
35 35 36 37 36 38 34 28 29 46 41 28 34 29 29 25 19 13 13 12 4 12 14 17 12 12 8 4 4 8 9 15 19 11 3 7 6 13 14 14 18 8 6 5 8 5 4
33 33 34 33 31 35 37 30 17 47 34 28 33 26 30 20 18 15 16 13 10 13 13 19 10 7 8 9 9 8 5 12 9 8 8 8 9 15 12 14 9 10 10 3 1 3 3
34 33 33 34 30 32 31 27 12 2 23 31 37 27 29 23 20 20 21 14 17 18 17 19 12 12 9 9 9 11 5 9 12 8 6 8 5 11 13 8 9 10 9 3 3 2 3
35 35 32 34 33 31 32 30 30 8 29 35 34 28 27 25 23 25 22 19 19 21 22 20 12 12 10 10 12 9 7 6 13 11 10 5 6 9 11 7 13 12 11 9 2 3 3
37 37 33 35 34 34 30 34 35 32 26 31 31 23 21 22 25 26 14 17 19 25 23 17 15 13 11 11 10 10 8 8 16 12 11 7 5 7 2 10 16 16 16 13 9 4 6
37 36 35 35 36 34 35 25 32 40 29 33 31 24 22 25 26 18 21 19 21 27 24 20 15 17 14 16 6 13 11 11 13 17 14 10 9 3 7 2 6 15 20 20 16 8 7
38 35 34 35 35 35 28 20 26 35 32 40 31 24 21 16 30 21 21 20 23 28 20 18 19 18 16 14 12 13 12 14 15 16 15 10 9 7 4 2 3 5 15 15 21 23 14
37 34 33 34 32 33 22 29 19 37 31 41 32 24 23 16 13 24 25 23 26 24 24 24 16 20 18 16 14 13 7 15 9 15 18 14 6 7 6 7 8 9 11 13 17 28 26
35 32 32 34 34 30 14 31 16 34 36 41 31 21 14 17 18 26 25 24 21 23 21 18 16 21 18 14 10 10 7 7 6 12 22 15 10 6 4 8 9 14 20 22 21 19 21
33 31 31 33 32 16 8 24 4 27 42 39 24 18 18 13 17 19 22 24 22 19 19 22 20 21 18 13 13 12 9 9 6 7 12 14 12 7 3 4 1 8 7 7 11 15 21
32 30 30 32 28 18 17 23 36 29 38 34 22 21 16 10 14 20 25 25 22 20 14 23 20 18 17 16 18 15 13 9 8 10 12 10 13 7 6 10 10 9 9 8 8 10 11
29 28 30 24 17 12 24 31 34 34 29 29 28 25 18 11 22 22 29 26 26 23 21 20 19 18 20 18 14 7 7 8 10 10 14 13 12 13 11 4 5 2 2 2 4 8 9
27 28 24 13 2 7 9 24 30 25 25 30 28 28 22 15 20 26 28 25 24 22 23 23 23 21 19 22 17 10 6 10 8 11 17 16 12 17 14 7 6 9 10 10 6 8 9
27 25 19 4 4 11 20 19 29 28 30 36 28 25 23 19 16 24 23 24 21 22 23 21 22 25 24 21 18 8 7 13 8 10 11 19 14 14 15 8 10 12 17 16 11 11 12
24 20 15 1 9 16 6 17 28 29 31 34 29 26 22 20 13 20 21 21 20 19 22 17 19 19 19 21 14 13 7 12 13 10 14 12 12 7 9 6 7 7 10 13 12 12 13
Wind_Direction
306 306 306 309 313 318 323 327 311 327 332 336 334 340 338 337 334 330 328 318 313 310 306 308 315 324 314 313 307 306 311 320 318 326 271 234 181 189 192 201 201 191 206 206 190 183 190
297 301 304 304 303 308 312 314 318 319 329 337 338 339 337 336 335 331 328 319 314 309 307 308 315 326 317 315 310 307 305 310 313 328 243 246 175 182 192 206 206 208 227 201 204 192 192
289 290 292 298 298 300 300 297 314 318 320 329 333 335 335 333 333 330 327 320 316 308 309 312 319 328 323 310 306 320 316 308 303 308 295 202 176 177 171 189 195 195 175 195 201 211 205
290 287 282 286 291 295 299 297 297 301 309 326 332 333 333 331 332 329 327 321 320 312 315 320 326 330 332 322 300 312 321 302 283 267 291 195 173 188 182 184 190 195 179 183 201 215 177
286 285 287 286 285 288 292 291 303 305 305 314 324 327 331 330 331 328 327 323 322 316 325 330 343 334 332 319 307 291 284 264 255 265 185 193 211 171 178 184 183 198 166 185 215 221 236
280 281 282 283 282 280 285 281 293 300 300 304 318 327 321 327 328 325 328 323 324 322 331 352 359 350 342 332 327 288 179 181 124 165 175 178 194 203 211 176 188 186 193 195 195 208 227
278 274 277 278 277 276 271 276 268 288 295 302 313 321 320 322 324 324 325 324 319 321 332 19 10 12 355 360 30 104 129 142 150 150 157 180 197 205 224 190 139 191 196 195 215 101 236
285 283 278 274 276 274 270 271 274 278 287 295 292 314 316 318 321 320 320 320 317 309 331 28 25 21 12 25 52 87 117 108 156 165 166 175 190 202 198 185 172 177 179 189 219 254 343
290 287 283 280 277 276 271 262 266 268 277 289 284 304 308 314 317 316 318 321 317 304 310 28 38 40 48 40 36 69 69 85 121 154 161 172 174 184 215 183 169 160 183 186 207 216 229
295 292 287 281 276 273 271 269 259 256 269 278 292 294 299 309 312 309 313 316 314 281 113 39 37 35 4 26 53 49 72 97 111 119 164 175 153 167 187 145 159 150 163 159 184 177 174
301 298 293 286 282 272 268 265 253 250 261 257 280 293 288 308 305 298 303 305 299 188 41 75 69 44 49 99 70 62 57 88 113 120 142 210 103 146 180 160 144 165 166 158 165 72 120
319 315 306 296 283 277 269 262 246 242 244 253 278 275 281 303 297 290 290 281 247 205 257 145 138 95 102 109 91 85 82 90 92 123 122 115 126 122 98 138 136 146 145 160 141 134 38
321 311 302 298 299 292 282 276 248 232 230 247 260 268 274 293 287 281 271 251 208 219 172 168 157 147 149 130 108 97 88 70 106 115 95 124 126 121 122 128 138 156 151 107 85 52 161
317 308 303 305 300 300 283 277 261 223 230 230 247 252 267 277 274 268 245 217 221 193 171 164 175 155 174 146 133 117 101 81 125 121 112 88 111 125 138 142 154 143 221 97 124 162 156
315 310 305 307 303 293 300 282 263 218 229 218 240 252 257 264 261 252 229 211 227 186 176 160 162 183 179 179 139 120 101 117 127 146 106 119 131 137 138 148 159 165 124 76 96 103 112
311 306 300 302 309 304 306 295 263 217 218 216 234 243 256 251 249 237 221 220 208 167 169 166 160 181 216 169 156 131 118 160 148 141 119 133 130 155 150 157 157 166 152 156 87 134 147
308 304 300 299 304 302 303 282 109 306 247 226 224 241 253 248 240 227 221 213 190 174 179 172 167 171 202 204 174 157 165 170 173 150 129 144 143 167 163 172 172 169 167 162 119 73 143
304 304 305 305 304 302 298 293 241 253 239 236 225 223 241 236 221 223 224 207 191 185 180 181 173 177 192 180 185 168 185 175 170 159 149 136 122 140 183 189 185 181 195 206 177 187 106
307 303 306 302 308 305 295 295 265 237 230 220 208 221 219 225 221 224 213 182 182 186 186 180 175 171 176 170 156 164 182 195 175 169 172 156 140 113 191 221 211 215 199 201 214 191 186
314 306 304 303 305 308 305 260 249 244 220 213 211 217 210 217 228 221 202 189 181 183 188 193 184 175 172 171 177 174 181 184 184 187 189 184 168 168 179 150 212 225 224 216 221 221 206
314 311 305 303 309 308 306 249 233 226 233 213 212 219 213 220 223 211 191 183 176 182 185 186 186 180 178 169 165 178 181 181 190 196 192 187 187 181 179 199 252 239 231 236 235 235 233
313 312 309 305 311 310 296 217 218 195 205 204 210 216 210 221 198 196 178 185 186 183 185 188 191 186 181 190 193 185 178 180 185 204 191 192 181 202 226 243 252 251 237 235 243 241 245
314 312 312 306 310 312 290 224 212 200 208 211 211 228 197 210 191 188 192 179 178 190 187 188 181 184 186 199 182 164 153 140 153 193 193 194 202 206 228 250 264 271 254 250 253 253 248
314 312 311 306 310 289 236 244 202 212 207 213 211 179 206 203 195 183 180 173 180 183 183 170 178 190 188 182 170 171 135 140 143 151 188 205 212 202 237 212 251 244 240 238 245 249 249
312 313 311 309 311 290 195 197 179 209 207 215 184 185 197 197 176 179 171 172 173 181 178 179 179 187 185 179 167 151 155 161 173 178 187 200 192 184 206 216 282 255 243 249 259 257 252
313 313 310 311 308 269 227 196 193 191 210 217 180 183 189 186 176 173 173 177 178 181 180 183 185 180 184 185 182 178 180 189 191 187 194 208 198 211 201 212 225 250 193 218 276 261 258
313 314 311 308 131 293 309 225 203 190 195 193 179 185 186 190 184 179 181 182 186 189 187 187 188 184 185 191 184 180 186 187 183 186 194 190 201 218 219 225 252 230 235 252 237 255 266
311 309 305 255 120 299 258 230 205 190 188 185 179 177 186 185 188 189 191 195 196 195 192 183 181 195 191 196 198 177 194 195 203 195 197 200 199 217 222 224 253 218 213 219 252 265 276
311 310 293 341 203 256 252 192 193 185 184 185 180 176 180 187 189 188 194 201 203 203 194 198 194 198 196 196 199 205 193 195 211 208 207 216 214 221 212 234 232 217 238 245 255 271 275
Height
3142 3140 3137 3135 3132 3129 3126 3122 3118 3114 3111 3106 3099 3095 3089 3081 3075 3071 3067 3064 3059 3056 3053 3049 3046 3042 3039 3035 3032 3030 3029 3027 3025 3022 3021 3023 3026 3031 3037 3042 3049 3052 3059 3065 3071 3079 3086
3137 3134 3131 3129 3126 3124 3121 3118 3116 3111 3106 3102 3097 3091 3086 3078 3072 3068 3063 3060 3056 3053 3050 3046 3042 3039 3035 3033 3028 3026 3026 3024 3023 3022 3020 3020 3024 3031 3035 3041 3047 3051 3055 3064 3070 3078 3083
3132 3128 3125 3122 3120 3117 3115 3112 3110 3107 3102 3098 3092 3089 3083 3076 3069 3064 3060 3057 3053 3050 3047 3043 3039 3034 3032 3030 3026 3024 3024 3022 3021 3021 3021 3021 3023 3028 3030 3040 3045 3050 3051 3061 3068 3072 3081
3128 3123 3118 3114 3113 3111 3108 3107 3104 3102 3098 3093 3088 3085 3081 3073 3066 3061 3058 3053 3050 3048 3044 3040 3036 3032 3028 3027 3024 3022 3021 3020 3019 3019 3019 3023 3026 3030 3036 3038 3044 3055 3051 3056 3063 3066 3072
3122 3117 3113 3109 3106 3103 3102 3100 3099 3096 3093 3087 3086 3080 3078 3070 3063 3058 3055 3051 3047 3046 3043 3038 3034 3030 3026 3023 3018 3017 3017 3019 3018 3017 3018 3021 3026 3029 3036 3040 3045 3048 3046 3057 3065 3071 3068
3114 3110 3106 3102 3098 3096 3095 3094 3092 3089 3088 3084 3080 3074 3075 3068 3061 3056 3052 3049 3046 3044 3042 3037 3034 3031 3026 3021 3013 3008 3013 3017 3018 3017 3018 3023 3029 3031 3036 3041 3043 3045 3050 3060 3067 3073 3072
3106 3101 3097 3093 3089 3086 3085 3084 3083 3083 3082 3080 3074 3071 3069 3064 3058 3053 3050 3047 3047 3045 3041 3037 3035 3029 3026 3022 3016 3012 3014 3017 3018 3019 3022 3025 3031 3032 3033 3035 3044 3050 3055 3060 3068 3065 3069
3095 3093 3088 3085 3080 3077 3075 3076 3075 3074 3075 3073 3070 3067 3062 3060 3054 3050 3048 3045 3043 3044 3040 3037 3034 3030 3028 3024 3021 3019 3018 3020 3018 3020 3023 3029 3030 3034 3037 3041 3048 3051 3056 3061 3065 3068 3071
3084 3081 3077 3074 3071 3068 3068 3066 3066 3067 3067 3067 3065 3061 3059 3057 3051 3048 3045 3043 3042 3040 3040 3037 3034 3032 3030 3028 3025 3020 3020 3020 3019 3021 3025 3030 3033 3034 3038 3039 3046 3052 3055 3063 3073 3075 3078
3072 3069 3065 3063 3059 3055 3055 3057 3059 3058 3058 3060 3058 3056 3055 3052 3050 3045 3042 3041 3040 3038 3038 3039 3035 3034 3033 3029 3028 3023 3022 3024 3024 3026 3028 3033 3034 3036 3036 3041 3049 3054 3058 3065 3070 3073 3075
3060 3055 3053 3050 3046 3044 3042 3043 3047 3048 3050 3052 3052 3050 3050 3045 3046 3043 3041 3039 3038 3039 3041 3038 3036 3035 3032 3032 3031 3029 3023 3027 3029 3030 3033 3032 3033 3038 3041 3043 3048 3053 3059 3067 3071 3068 3071
3044 3041 3037 3035 3033 3029 3027 3028 3032 3037 3042 3043 3045 3043 3045 3041 3042 3040 3038 3037 3038 3040 3037 3035 3035 3035 3034 3033 3032 3031 3030 3032 3032 3032 3033 3034 3038 3042 3043 3047 3048 3053 3060 3067 3069 3070 3072
3035 3032 3027 3024 3021 3019 3014 3012 3019 3025 3030 3034 3039 3037 3038 3037 3038 3036 3035 3036 3037 3034 3035 3035 3034 3035 3035 3034 3034 3033 3034 3033 3033 3036 3036 3039 3042 3044 3046 3048 3054 3055 3060 3062 3067 3071 3074
3028 3023 3021 3017 3014 3010 3007 3004 3003 3014 3019 3025 3029 3031 3031 3033 3032 3032 3033 3034 3032 3029 3029 3032 3033 3034 3035 3035 3035 3036 3036 3036 3037 3038 3040 3043 3048 3049 3052 3054 3054 3057 3058 3056 3063 3070 3071
3019 3016 3013 3010 3006 3002 3000 2995 2996 2999 3006 3015 3021 3022 3026 3028 3026 3027 3030 3029 3025 3026 3027 3030 3032 3034 3034 3034 3036 3037 3038 3041 3041 3042 3044 3046 3050 3051 3054 3057 3059 3059 3058 3062 3065 3069 3071
3012 3009 3006 3002 2998 2995 2992 2988 2988 2992 2998 3006 3013 3016 3019 3020 3021 3023 3025 3023 3022 3023 3026 3029 3030 3032 3033 3034 3036 3036 3039 3041 3043 3044 3045 3047 3050 3053 3055 3057 3059 3062 3064 3068 3069 3073 3072
3004 3001 2997 2993 2990 2986 2985 2985 2986 2989 2994 2998 3004 3007 3010 3014 3016 3018 3017 3018 3019 3021 3025 3027 3030 3031 3033 3033 3035 3037 3040 3041 3043 3045 3046 3047 3049 3055 3057 3058 3060 3062 3065 3069 3069 3068 3070
2997 2993 2989 2985 2982 2978 2976 2977 2973 2979 2984 2990 2995 2999 3003 3007 3011 3009 3011 3013 3016 3018 3022 3025 3029 3031 3033 3034 3035 3037 3040 3040 3043 3045 3047 3048 3050 3053 3057 3059 3061 3063 3065 3066 3066 3069 3068
2989 2986 2981 2978 2975 2971 2967 2966 2965 2968 2974 2985 2990 2992 2995 3000 3001 3003 3007 3009 3012 3016 3020 3024 3027 3030 3032 3033 3036 3038 3039 3040 3043 3045 3047 3049 3050 3053 3057 3060 3060 3061 3064 3066 3067 3067 3068
2981 2977 2974 2971 2966 2963 2957 2956 2957 2960 2969 2979 2984 2986 2990 2993 2995 2999 3003 3005 3009 3013 3019 3022 3025 3029 3031 3033 3035 3037 3039 3040 3043 3045 3047 3049 3050 3052 3054 3054 3056 3057 3060 3063 3065 3067 3068
2974 2969 2966 2962 2958 2954 2949 2945 2950 2952 2961 2972 2976 2977 2984 2984 2988 2995 2999 3003 3006 3010 3016 3020 3024 3027 3030 3032 3034 3035 3037 3039 3042 3044 3048 3050 3051 3053 3054 3055 3055 3055 3057 3060 3061 3063 3065
2966 2962 2958 2955 2951 2944 2942 2942 2943 2948 2959 2965 2970 2974 2978 2983 2985 2992 2995 2999 3004 3008 3012 3016 3021 3025 3028 3030 3032 3032 3035 3038 3040 3043 3046 3049 3051 3054 3056 3056 3056 3056 3056 3056 3057 3058 3061
2959 2955 2951 2947 2942 2936 2933 2938 2942 2949 2958 2962 2965 2971 2979 2981 2983 2988 2991 2998 3003 3007 3011 3017 3020 3023 3027 3030 3032 3034 3035 3037 3039 3041 3044 3048 3050 3053 3054 3054 3054 3054 3052 3053 3054 3055 3057
2953 2948 2944 2939 2933 2929 2929 2934 2936 2945 2953 2958 2964 2972 2978 2981 2983 2987 2992 2998 3002 3006 3009 3014 3019 3022 3026 3029 3032 3034 3036 3038 3040 3041 3044 3046 3050 3052 3053 3052 3054 3047 3047 3048 3049 3051 3052
2946 2942 2937 2934 2929 2927 2926 2929 2928 2943 2950 2958 2963 2971 2977 2980 2984 2987 2991 2996 3002 3006 3009 3013 3018 3022 3025 3028 3031 3033 3037 3039 3040 3041 3044 3046 3047 3048 3049 3048 3046 3044 3045 3047 3047 3048 3048
2940 2937 2934 2929 2928 2927 2927 2928 2932 2937 2950 2958 2962 2968 2975 2980 2983 2987 2990 2995 2999 3003 3008 3012 3017 3020 3024 3027 3029 3031 3034 3036 3038 3040 3042 3043 3045 3047 3046 3046 3045 3043 3044 3045 3046 3046 3046
2933 2932 2928 2925 2925 2925 2927 2930 2933 2940 2948 2957 2961 2966 2972 2977 2982 2986 2989 2992 2998 3002 3006 3011 3015 3019 3023 3025 3028 3031 3033 3035 3035 3037 3038 3040 3042 3042 3042 3042 3041 3041 3043 3043 3044 3046 3042
2928 2925 2924 2923 2921 2924 2928 2928 2934 2940 2948 2955 2959 2965 2972 2977 2981 2985 2989 2992 2996 3001 3005 3009 3014 3017 3020 3024 3027 3028 3030 3032 3033 3034 3034 3036 3038 3038 3041 3041 3040 3036 3037 3039 3040 3039 3039
2924 2921 2919 2920 2922 2924 2923 2926 2933 2939 2948 2954 2958 2965 2970 2977 2981 2984 2988 2992 2995 3000 3004 3007 3011 3013 3017 3021 3023 3026 3027 3029 3030 3032 3033 3035 3035 3035 3036 3034 3033 3033 3035 3035 3035 3035 3034